Data No.,UTC Date,UTC Time,Latitude,Longitude,Course(deg),Temp(degC),Sal(psu)
7948,2012/1/24,16:15:00,17-13.3600N,120-00.0600E,20,28.185,32.9664
7949,2012/1/24,16:16:00,17-13.5500N,120-00.1300E,20,28.181,32.9668
7950,2012/1/24,16:17:00,17-13.7400N,120-00.2000E,21,28.183,32.9673
7951,2012/1/24,16:18:00,17-13.9300N,120-00.2800E,21,28.179,32.9679
7952,2012/1/24,16:19:00,17-14.1300N,120-00.3600E,21,28.175,32.9675
7953,2012/1/24,16:20:00,17-14.3200N,120-00.4300E,20,28.168,32.9672
7954,2012/1/24,16:21:00,17-14.5000N,120-00.5000E,20,28.162,32.9668
7955,2012/1/24,16:22:00,17-14.6900N,120-00.5700E,19,28.155,32.9662
7956,2012/1/24,16:23:00,17-14.8800N,120-00.6500E,21,28.151,32.9657
7957,2012/1/24,16:24:00,17-15.0600N,120-00.7200E,21,28.15,32.9634
7958,2012/1/24,16:25:00,17-15.2500N,120-00.7900E,20,28.146,32.9619
7959,2012/1/24,16:26:00,17-15.4400N,120-00.8700E,20,28.14,32.9596
7960,2012/1/24,16:27:00,17-15.6300N,120-00.9400E,20,28.133,32.9562
7961,2012/1/24,16:28:00,17-15.8200N,120-01.0200E,20,28.127,32.9525
7962,2012/1/24,16:29:00,17-16.0200N,120-01.0900E,21,28.118,32.9467
7963,2012/1/24,16:30:00,17-16.2100N,120-01.1700E,21,28.107,32.9416
7964,2012/1/24,16:31:00,17-16.4000N,120-01.2500E,21,28.104,32.939
7965,2012/1/24,16:32:00,17-16.5900N,120-01.3300E,23,28.104,32.9366
7966,2012/1/24,16:33:00,17-16.7800N,120-01.4100E,23,28.107,32.9351
7967,2012/1/24,16:34:00,17-16.9700N,120-01.4900E,22,28.11,32.9329
7968,2012/1/24,16:35:00,17-17.1600N,120-01.5700E,22,28.11,32.9338
7969,2012/1/24,16:36:00,17-17.3500N,120-01.6500E,24,28.114,32.935
7970,2012/1/24,16:37:00,17-17.5300N,120-01.7300E,23,28.106,32.9336
7971,2012/1/24,16:38:00,17-17.7100N,120-01.8200E,24,28.097,32.9339
7972,2012/1/24,16:39:00,17-17.9000N,120-01.9100E,23,28.093,32.934
7973,2012/1/24,16:40:00,17-18.0800N,120-01.9900E,23,28.094,32.9329
7974,2012/1/24,16:41:00,17-18.2700N,120-02.0700E,23,28.092,32.9328
7975,2012/1/24,16:42:00,17-18.4500N,120-02.1600E,22,28.09,32.9319
7976,2012/1/24,16:43:00,17-18.6400N,120-02.2400E,22,28.084,32.932
7977,2012/1/24,16:44:00,17-18.8200N,120-02.3200E,23,28.09,32.9331
7978,2012/1/24,16:45:00,17-19.0100N,120-02.4100E,23,28.092,32.9338
7979,2012/1/24,16:46:00,17-19.2000N,120-02.4900E,22,28.097,32.9366
7980,2012/1/24,16:47:00,17-19.3900N,120-02.5600E,21,28.099,32.9405
7981,2012/1/24,16:48:00,17-19.5800N,120-02.6400E,22,28.105,32.9441
7982,2012/1/24,16:49:00,17-19.7700N,120-02.7300E,22,28.11,32.948
7983,2012/1/24,16:50:00,17-19.9600N,120-02.8100E,22,28.131,32.953
7984,2012/1/24,16:51:00,17-20.1500N,120-02.8900E,22,28.13,32.9596
7985,2012/1/24,16:52:00,17-20.3400N,120-02.9700E,22,28.136,32.9677
7986,2012/1/24,16:53:00,17-20.5500N,120-03.0600E,22,28.134,32.9745
7987,2012/1/24,16:54:00,17-20.7200N,120-03.1300E,20,28.12,32.9823
7988,2012/1/24,16:55:00,17-20.9100N,120-03.2100E,19,28.119,32.9859
7989,2012/1/24,16:56:00,17-21.1000N,120-03.2800E,18,28.105,32.9861
7990,2012/1/24,16:57:00,17-21.3000N,120-03.3500E,18,28.089,32.9856
7991,2012/1/24,16:58:00,17-21.5000N,120-03.4200E,19,28.08,32.9814
7992,2012/1/24,16:59:00,17-21.7000N,120-03.5000E,21,28.075,32.9774
7993,2012/1/24,17:00:00,17-21.8900N,120-03.5800E,19,28.091,32.9759
7994,2012/1/24,17:01:00,17-22.1000N,120-03.6600E,20,28.114,32.9765
7995,2012/1/24,17:02:00,17-22.2900N,120-03.7300E,20,28.111,32.9779
7996,2012/1/24,17:03:00,17-22.4900N,120-03.8100E,20,28.078,32.9755
7997,2012/1/24,17:04:00,17-22.6900N,120-03.8900E,18,28.063,32.9702
7998,2012/1/24,17:05:00,17-22.8800N,120-03.9500E,18,28.048,32.9387
7999,2012/1/24,17:06:00,17-23.0800N,120-04.0200E,17,28.048,32.9215
8000,2012/1/24,17:07:00,17-23.2800N,120-04.1000E,19,28.041,32.9085
8001,2012/1/24,17:08:00,17-23.4600N,120-04.1600E,19,28.037,32.9041
8002,2012/1/24,17:09:00,17-23.6600N,120-04.2300E,18,28.029,32.9013
8003,2012/1/24,17:10:00,17-23.8600N,120-04.3000E,18,28.015,32.8999
8004,2012/1/24,17:11:00,17-24.0800N,120-04.3800E,18,28.006,32.8921
8005,2012/1/24,17:12:00,17-24.2900N,120-04.4500E,16,27.994,32.8832
8006,2012/1/24,17:13:00,17-24.4800N,120-04.5200E,16,27.982,32.8798
8007,2012/1/24,17:14:00,17-24.6800N,120-04.5800E,18,27.956,32.872
8008,2012/1/24,17:15:00,17-24.8600N,120-04.6400E,17,27.959,32.8608
8009,2012/1/24,17:16:00,17-25.0600N,120-04.7100E,18,27.958,32.8311
8010,2012/1/24,17:17:00,17-25.2700N,120-04.7800E,18,27.956,32.8263
8011,2012/1/24,17:18:00,17-25.4700N,120-04.8500E,17,27.953,32.8262
8012,2012/1/24,17:19:00,17-25.6800N,120-04.9200E,17,27.956,32.824
8013,2012/1/24,17:20:00,17-25.8800N,120-04.9900E,18,27.961,32.8207
8014,2012/1/24,17:21:00,17-26.0800N,120-05.0500E,17,27.968,32.8172
8015,2012/1/24,17:22:00,17-26.2900N,120-05.1200E,19,27.969,32.8159
8016,2012/1/24,17:23:00,17-26.4900N,120-05.1900E,18,27.971,32.8135
8017,2012/1/24,17:24:00,17-26.6900N,120-05.2600E,19,27.971,32.8102
8018,2012/1/24,17:25:00,17-26.8900N,120-05.3300E,19,27.977,32.8057
8019,2012/1/24,17:26:00,17-27.1000N,120-05.4000E,17,27.981,32.8031
8020,2012/1/24,17:27:00,17-27.3000N,120-05.4700E,16,27.983,32.8014
8021,2012/1/24,17:28:00,17-27.5000N,120-05.5400E,17,27.99,32.8009
8022,2012/1/24,17:29:00,17-27.7000N,120-05.6100E,19,27.994,32.8016
8023,2012/1/24,17:30:00,17-27.9100N,120-05.6900E,18,27.994,32.8039
8024,2012/1/24,17:31:00,17-28.1100N,120-05.7600E,18,27.993,32.8047
8025,2012/1/24,17:32:00,17-28.3100N,120-05.8300E,17,27.989,32.8048
8026,2012/1/24,17:33:00,17-28.5100N,120-05.9000E,18,27.988,32.8044
8027,2012/1/24,17:34:00,17-28.7100N,120-05.9700E,19,27.992,32.805
8028,2012/1/24,17:35:00,17-28.9200N,120-06.0400E,17,27.989,32.8046
8029,2012/1/24,17:36:00,17-29.1100N,120-06.1100E,19,27.994,32.8044
8030,2012/1/24,17:37:00,17-29.3200N,120-06.1900E,18,28.004,32.8041
8031,2012/1/24,17:38:00,17-29.5200N,120-06.2600E,18,28.004,32.803
8032,2012/1/24,17:39:00,17-29.7200N,120-06.3400E,18,28.012,32.8029
8033,2012/1/24,17:40:00,17-29.9300N,120-06.4100E,21,28.022,32.8041
8034,2012/1/24,17:41:00,17-30.1300N,120-06.4900E,19,28.028,32.8057
8035,2012/1/24,17:42:00,17-30.3300N,120-06.5600E,19,28.027,32.8082
8036,2012/1/24,17:43:00,17-30.5300N,120-06.6400E,18,28.027,32.8091
8037,2012/1/24,17:44:00,17-30.7300N,120-06.7100E,19,28.026,32.8102
8038,2012/1/24,17:45:00,17-30.9400N,120-06.7800E,19,28.026,32.8112
8039,2012/1/24,17:46:00,17-31.1400N,120-06.8600E,19,28.027,32.8126
8040,2012/1/24,17:47:00,17-31.3400N,120-06.9400E,19,28.029,32.8139
8041,2012/1/24,17:48:00,17-31.5400N,120-07.0100E,19,28.032,32.8151
8042,2012/1/24,17:49:00,17-31.7400N,120-07.0900E,18,28.032,32.8169
8043,2012/1/24,17:50:00,17-31.9500N,120-07.1600E,18,28.036,32.8179
8044,2012/1/24,17:51:00,17-32.1500N,120-07.2400E,17,28.035,32.8197
8045,2012/1/24,17:52:00,17-32.3500N,120-07.3100E,18,28.043,32.8214
8046,2012/1/24,17:53:00,17-32.5600N,120-07.3800E,18,28.042,32.8236
8047,2012/1/24,17:54:00,17-32.7600N,120-07.4600E,19,28.039,32.8254
8048,2012/1/24,17:55:00,17-32.9600N,120-07.5400E,21,28.049,32.8259
8049,2012/1/24,17:56:00,17-33.1600N,120-07.6100E,19,28.052,32.8287
8050,2012/1/24,17:57:00,17-33.3600N,120-07.6900E,20,28.062,32.8319
8051,2012/1/24,17:58:00,17-33.5600N,120-07.7700E,21,28.071,32.8358
8052,2012/1/24,17:59:00,17-33.7600N,120-07.8500E,20,28.075,32.8411
8053,2012/1/24,18:00:00,17-33.9700N,120-07.9300E,19,28.078,32.8448
8054,2012/1/24,18:01:00,17-34.1700N,120-08.0100E,19,28.077,32.8467
8055,2012/1/24,18:02:00,17-34.3800N,120-08.0800E,19,28.074,32.8486
8056,2012/1/24,18:03:00,17-34.5800N,120-08.1600E,20,28.076,32.8503
8057,2012/1/24,18:04:00,17-34.7900N,120-08.2400E,20,28.081,32.8514
8058,2012/1/24,18:05:00,17-34.9900N,120-08.3200E,20,28.094,32.8529
8059,2012/1/24,18:06:00,17-35.1900N,120-08.3900E,20,28.095,32.856
8060,2012/1/24,18:07:00,17-35.4000N,120-08.4700E,20,28.093,32.8591
8061,2012/1/24,18:08:00,17-35.6000N,120-08.5500E,20,28.089,32.8603
8062,2012/1/24,18:09:00,17-35.8000N,120-08.6300E,19,28.088,32.8614
8063,2012/1/24,18:10:00,17-36.0000N,120-08.7100E,19,28.095,32.8625
8064,2012/1/24,18:11:00,17-36.2000N,120-08.7800E,20,28.1,32.8632
8065,2012/1/24,18:12:00,17-36.4000N,120-08.8600E,20,28.098,32.8648
8066,2012/1/24,18:13:00,17-36.5900N,120-08.9400E,20,28.102,32.8654
8067,2012/1/24,18:14:00,17-36.7900N,120-09.0100E,19,28.097,32.8663
8068,2012/1/24,18:15:00,17-36.9900N,120-09.0900E,20,28.086,32.8663
8069,2012/1/24,18:16:00,17-37.2000N,120-09.1700E,20,28.084,32.8656
8070,2012/1/24,18:17:00,17-37.4000N,120-09.2400E,20,28.075,32.8651
8071,2012/1/24,18:18:00,17-37.6000N,120-09.3200E,21,28.07,32.8636
8072,2012/1/24,18:19:00,17-37.8000N,120-09.4000E,22,28.066,32.8613
8073,2012/1/24,18:20:00,17-37.9900N,120-09.4800E,21,28.056,32.8594
8074,2012/1/24,18:21:00,17-38.1900N,120-09.5600E,21,28.052,32.8582
8075,2012/1/24,18:22:00,17-38.3900N,120-09.6400E,21,28.042,32.8565
8076,2012/1/24,18:23:00,17-38.5900N,120-09.7200E,20,28.045,32.8551
8077,2012/1/24,18:24:00,17-38.7800N,120-09.8000E,20,28.042,32.854
8078,2012/1/24,18:25:00,17-38.9800N,120-09.8800E,21,28.035,32.8534
8079,2012/1/24,18:26:00,17-39.1800N,120-09.9600E,23,28.036,32.8524
8080,2012/1/24,18:27:00,17-39.3700N,120-10.0400E,22,28.034,32.8513
8081,2012/1/24,18:28:00,17-39.5700N,120-10.1300E,21,28.033,32.85
8082,2012/1/24,18:29:00,17-39.7600N,120-10.2100E,21,28.03,32.8491
8083,2012/1/24,18:30:00,17-39.9600N,120-10.2900E,20,28.03,32.8484
8084,2012/1/24,18:31:00,17-40.1600N,120-10.3700E,23,28.034,32.8482
8085,2012/1/24,18:32:00,17-40.3800N,120-10.4700E,22,28.029,32.8474
8086,2012/1/24,18:33:00,17-40.5800N,120-10.5500E,21,28.029,32.8483
8087,2012/1/24,18:34:00,17-40.7400N,120-10.6200E,21,28.032,32.848
8088,2012/1/24,18:35:00,17-40.9400N,120-10.7000E,22,28.037,32.8485
8089,2012/1/24,18:36:00,17-41.1300N,120-10.7900E,22,28.042,32.8506
8090,2012/1/24,18:37:00,17-41.3200N,120-10.8700E,21,28.044,32.8522
8091,2012/1/24,18:38:00,17-41.5100N,120-10.9500E,22,28.053,32.8543
8092,2012/1/24,18:39:00,17-41.7100N,120-11.0300E,21,28.055,32.8571
8093,2012/1/24,18:40:00,17-41.9000N,120-11.1300E,23,28.061,32.8591
8094,2012/1/24,18:41:00,17-42.1000N,120-11.2000E,21,28.073,32.8614
8095,2012/1/24,18:42:00,17-42.3000N,120-11.2800E,21,28.085,32.8636
8096,2012/1/24,18:43:00,17-42.4900N,120-11.3700E,23,28.102,32.8674
8097,2012/1/24,18:44:00,17-42.6900N,120-11.4500E,21,28.111,32.8723
8098,2012/1/24,18:45:00,17-42.8900N,120-11.5300E,20,28.132,32.8804
8099,2012/1/24,18:46:00,17-43.0900N,120-11.6100E,20,28.137,32.888
8100,2012/1/24,18:47:00,17-43.2900N,120-11.6900E,21,28.141,32.8962
8101,2012/1/24,18:48:00,17-43.4900N,120-11.7800E,21,28.121,32.9003
8102,2012/1/24,18:49:00,17-43.6900N,120-11.8600E,21,28.108,32.9001
8103,2012/1/24,18:50:00,17-43.8800N,120-11.9400E,21,28.114,32.8955
8104,2012/1/24,18:51:00,17-44.0900N,120-12.0200E,21,28.103,32.8937
8105,2012/1/24,18:52:00,17-44.2800N,120-12.1000E,18,28.114,32.8943
8106,2012/1/24,18:53:00,17-44.4800N,120-12.1700E,19,28.126,32.8977
8107,2012/1/24,18:54:00,17-44.6800N,120-12.2400E,15,28.136,32.9003
8108,2012/1/24,18:55:00,17-44.8800N,120-12.2900E,12,28.135,32.8999
8109,2012/1/24,18:56:00,17-45.0800N,120-12.3400E,13,28.124,32.8979
8110,2012/1/24,18:57:00,17-45.2800N,120-12.3800E,12,28.118,32.8968
8111,2012/1/24,18:58:00,17-45.4900N,120-12.4400E,15,28.119,32.8942
8112,2012/1/24,18:59:00,17-45.6900N,120-12.5000E,15,28.112,32.8916
8113,2012/1/24,19:00:00,17-45.9000N,120-12.5700E,15,28.103,32.8884
8114,2012/1/24,19:01:00,17-46.1000N,120-12.6300E,16,28.105,32.8864
8115,2012/1/24,19:02:00,17-46.3000N,120-12.6900E,16,28.105,32.884
8116,2012/1/24,19:03:00,17-46.5100N,120-12.7500E,18,28.113,32.8827
8117,2012/1/24,19:04:00,17-46.7100N,120-12.8200E,16,28.111,32.8818
8118,2012/1/24,19:05:00,17-46.9100N,120-12.8800E,15,28.108,32.8812
8119,2012/1/24,19:06:00,17-47.1000N,120-12.9500E,19,28.103,32.8796
8120,2012/1/24,19:07:00,17-47.3000N,120-13.0200E,19,28.102,32.8766
8121,2012/1/24,19:08:00,17-47.5000N,120-13.1000E,20,28.09,32.8733
8122,2012/1/24,19:09:00,17-47.7000N,120-13.1800E,20,28.089,32.872
8123,2012/1/24,19:10:00,17-47.9000N,120-13.2500E,20,28.086,32.8691
8124,2012/1/24,19:11:00,17-48.1000N,120-13.3300E,21,28.079,32.8657
8125,2012/1/24,19:12:00,17-48.3000N,120-13.4100E,21,28.071,32.8633
8126,2012/1/24,19:13:00,17-48.5100N,120-13.4900E,19,28.061,32.8604
8127,2012/1/24,19:14:00,17-48.7100N,120-13.5700E,19,28.048,32.8569
8128,2012/1/24,19:15:00,17-48.9100N,120-13.6500E,20,28.033,32.8518
8129,2012/1/24,19:16:00,17-49.1100N,120-13.7300E,18,28.035,32.8448
8130,2012/1/24,19:17:00,17-49.3100N,120-13.8100E,21,28.039,32.8355
8131,2012/1/24,19:18:00,17-49.5100N,120-13.8900E,20,28.029,32.8303
8132,2012/1/24,19:19:00,17-49.7200N,120-13.9700E,21,28.024,32.8269
8133,2012/1/24,19:20:00,17-49.9200N,120-14.0500E,19,28.022,32.823
8134,2012/1/24,19:21:00,17-50.1200N,120-14.1200E,19,28.017,32.8196
8135,2012/1/24,19:22:00,17-50.3200N,120-14.2000E,20,28.011,32.816
8136,2012/1/24,19:23:00,17-50.5200N,120-14.2800E,20,28.011,32.8131
8137,2012/1/24,19:24:00,17-50.7200N,120-14.3500E,19,28.007,32.8101
8138,2012/1/24,19:25:00,17-50.9100N,120-14.4300E,21,27.999,32.8077
8139,2012/1/24,19:26:00,17-51.1100N,120-14.5000E,18,27.987,32.8064
8140,2012/1/24,19:27:00,17-51.3100N,120-14.5800E,20,27.983,32.8039
8141,2012/1/24,19:28:00,17-51.5100N,120-14.6600E,21,27.973,32.7992
8142,2012/1/24,19:29:00,17-51.7100N,120-14.7400E,20,27.961,32.795
8143,2012/1/24,19:30:00,17-51.9100N,120-14.8100E,20,27.952,32.7914
8144,2012/1/24,19:31:00,17-52.1100N,120-14.8900E,20,27.949,32.7872
8145,2012/1/24,19:32:00,17-52.3100N,120-14.9600E,19,27.939,32.7837
8146,2012/1/24,19:33:00,17-52.5100N,120-15.0500E,21,27.937,32.7804
8147,2012/1/24,19:34:00,17-52.7100N,120-15.1200E,21,27.932,32.7776
8148,2012/1/24,19:35:00,17-52.9100N,120-15.2000E,19,27.931,32.7749
8149,2012/1/24,19:36:00,17-53.1000N,120-15.2700E,19,27.934,32.7717
8150,2012/1/24,19:37:00,17-53.3000N,120-15.3500E,19,27.932,32.7694
8151,2012/1/24,19:38:00,17-53.5000N,120-15.4200E,19,27.936,32.7675
8152,2012/1/24,19:39:00,17-53.7000N,120-15.4900E,20,27.938,32.7662
8153,2012/1/24,19:40:00,17-53.8900N,120-15.5700E,19,27.941,32.7643
8154,2012/1/24,19:41:00,17-54.0900N,120-15.6400E,18,27.943,32.763
8155,2012/1/24,19:42:00,17-54.2900N,120-15.7200E,19,27.946,32.7626
8156,2012/1/24,19:43:00,17-54.4900N,120-15.7800E,18,27.95,32.7615
8157,2012/1/24,19:44:00,17-54.6900N,120-15.8500E,19,27.951,32.7609
8158,2012/1/24,19:45:00,17-54.8800N,120-15.9300E,21,27.949,32.7607
8159,2012/1/24,19:46:00,17-55.0700N,120-16.0100E,20,27.951,32.7599
8160,2012/1/24,19:47:00,17-55.2600N,120-16.0900E,20,27.952,32.7603
8161,2012/1/24,19:48:00,17-55.4600N,120-16.1600E,20,27.953,32.7598
8162,2012/1/24,19:49:00,17-55.6500N,120-16.2300E,19,27.952,32.7596
8163,2012/1/24,19:50:00,17-55.8400N,120-16.3000E,20,27.949,32.7589
8164,2012/1/24,19:51:00,17-56.0300N,120-16.3800E,20,27.955,32.7584
8165,2012/1/24,19:52:00,17-56.2300N,120-16.4500E,20,27.952,32.7587
8166,2012/1/24,19:53:00,17-56.4200N,120-16.5200E,18,27.948,32.7587
8167,2012/1/24,19:54:00,17-56.6200N,120-16.5900E,19,27.951,32.7585
8168,2012/1/24,19:55:00,17-56.8100N,120-16.6600E,19,27.943,32.7586
8169,2012/1/24,19:56:00,17-57.0100N,120-16.7300E,17,27.947,32.7587
8170,2012/1/24,19:57:00,17-57.2100N,120-16.8000E,19,27.947,32.7589
8171,2012/1/24,19:58:00,17-57.4100N,120-16.8700E,17,27.939,32.759
8172,2012/1/24,19:59:00,17-57.6100N,120-16.9400E,17,27.942,32.7591
8173,2012/1/24,20:00:00,17-57.8100N,120-17.0100E,17,27.945,32.7599
8174,2012/1/24,20:01:00,17-58.0100N,120-17.0800E,16,27.946,32.7593
8175,2012/1/24,20:02:00,17-58.2100N,120-17.1500E,18,27.941,32.7607
8176,2012/1/24,20:03:00,17-58.4100N,120-17.2200E,18,27.945,32.7608
8177,2012/1/24,20:04:00,17-58.6100N,120-17.2900E,19,27.943,32.762
8178,2012/1/24,20:05:00,17-58.8100N,120-17.3600E,18,27.942,32.7624
8179,2012/1/24,20:06:00,17-59.0100N,120-17.4300E,17,27.948,32.7626
8180,2012/1/24,20:07:00,17-59.2000N,120-17.4900E,17,27.943,32.7631
8181,2012/1/24,20:08:00,17-59.4000N,120-17.5600E,17,27.943,32.7636
8182,2012/1/24,20:09:00,17-59.6000N,120-17.6300E,18,27.94,32.7637
8183,2012/1/24,20:10:00,17-59.8000N,120-17.7000E,20,27.939,32.7639
8184,2012/1/24,20:11:00,17-59.9900N,120-17.7700E,18,27.938,32.7642
8185,2012/1/24,20:12:00,18-00.1900N,120-17.8400E,18,27.935,32.7638
8186,2012/1/24,20:13:00,18-00.3900N,120-17.9100E,17,27.934,32.7636
8187,2012/1/24,20:14:00,18-00.5900N,120-17.9700E,17,27.933,32.7635
8188,2012/1/24,20:15:00,18-00.7900N,120-18.0400E,18,27.933,32.7633
8189,2012/1/24,20:16:00,18-00.9800N,120-18.1100E,19,27.927,32.7639
8190,2012/1/24,20:17:00,18-01.1800N,120-18.1800E,18,27.923,32.7639
8191,2012/1/24,20:18:00,18-01.3800N,120-18.2500E,19,27.929,32.7636
8192,2012/1/24,20:19:00,18-01.5700N,120-18.3200E,16,27.922,32.7635
8193,2012/1/24,20:20:00,18-01.7700N,120-18.3800E,16,27.922,32.7642
8194,2012/1/24,20:21:00,18-01.9700N,120-18.4400E,17,27.918,32.7636
8195,2012/1/24,20:22:00,18-02.1700N,120-18.5100E,18,27.915,32.7632
8196,2012/1/24,20:23:00,18-02.3600N,120-18.5800E,19,27.911,32.7627
8197,2012/1/24,20:24:00,18-02.5600N,120-18.6500E,19,27.911,32.7625
8198,2012/1/24,20:25:00,18-02.7500N,120-18.7300E,18,27.912,32.7621
8199,2012/1/24,20:26:00,18-02.9500N,120-18.7900E,16,27.904,32.7611
8200,2012/1/24,20:27:00,18-03.1500N,120-18.8600E,19,27.903,32.7608
8201,2012/1/24,20:28:00,18-03.3500N,120-18.9300E,18,27.9,32.7601
8202,2012/1/24,20:29:00,18-03.5400N,120-19.0000E,19,27.901,32.7602
8203,2012/1/24,20:30:00,18-03.7400N,120-19.0800E,21,27.901,32.7594
8204,2012/1/24,20:31:00,18-03.9300N,120-19.1600E,21,27.895,32.7597
8205,2012/1/24,20:32:00,18-04.1200N,120-19.2300E,22,27.894,32.7588
8206,2012/1/24,20:33:00,18-04.3100N,120-19.3100E,21,27.886,32.7585
8207,2012/1/24,20:34:00,18-04.5100N,120-19.3900E,20,27.886,32.7582
8208,2012/1/24,20:35:00,18-04.7100N,120-19.4700E,19,27.88,32.7577
8209,2012/1/24,20:36:00,18-04.9100N,120-19.5400E,18,27.878,32.7576
8210,2012/1/24,20:37:00,18-05.1100N,120-19.6100E,18,27.874,32.7573
8211,2012/1/24,20:38:00,18-05.3100N,120-19.6800E,19,27.871,32.7571
8212,2012/1/24,20:39:00,18-05.5100N,120-19.7500E,19,27.873,32.7571
8213,2012/1/24,20:40:00,18-05.7000N,120-19.8200E,17,27.869,32.7572
8214,2012/1/24,20:41:00,18-05.9000N,120-19.8900E,19,27.867,32.7569
8215,2012/1/24,20:42:00,18-06.1000N,120-19.9600E,19,27.861,32.7571
8216,2012/1/24,20:43:00,18-06.3000N,120-20.0300E,18,27.855,32.7573
8217,2012/1/24,20:44:00,18-06.4900N,120-20.1000E,18,27.85,32.7577
8218,2012/1/24,20:45:00,18-06.6900N,120-20.1700E,17,27.844,32.7582
8219,2012/1/24,20:46:00,18-06.8900N,120-20.2300E,16,27.842,32.7585
8220,2012/1/24,20:47:00,18-07.0900N,120-20.3000E,18,27.841,32.7593
8221,2012/1/24,20:48:00,18-07.2900N,120-20.3700E,19,27.838,32.7591
8222,2012/1/24,20:49:00,18-07.4900N,120-20.4400E,17,27.835,32.7595
8223,2012/1/24,20:50:00,18-07.6900N,120-20.5100E,19,27.829,32.76
8224,2012/1/24,20:51:00,18-07.8900N,120-20.5800E,19,27.824,32.7606
8225,2012/1/24,20:52:00,18-08.0900N,120-20.6500E,18,27.818,32.7617
8226,2012/1/24,20:53:00,18-08.2900N,120-20.7200E,18,27.812,32.7629
8227,2012/1/24,20:54:00,18-08.5000N,120-20.7900E,17,27.81,32.7647
8228,2012/1/24,20:55:00,18-08.7000N,120-20.8500E,17,27.804,32.7656
8229,2012/1/24,20:56:00,18-08.9000N,120-20.9200E,17,27.792,32.7658
8230,2012/1/24,20:57:00,18-09.1000N,120-20.9900E,18,27.792,32.7678
8231,2012/1/24,20:58:00,18-09.3000N,120-21.0600E,19,27.787,32.7697
8232,2012/1/24,20:59:00,18-09.5000N,120-21.1300E,19,27.783,32.7723
8233,2012/1/24,21:00:00,18-09.7000N,120-21.2000E,18,27.775,32.7756
8234,2012/1/24,21:01:00,18-09.9100N,120-21.2700E,19,27.778,32.7793
8235,2012/1/24,21:02:00,18-10.1100N,120-21.3400E,18,27.772,32.7841
8236,2012/1/24,21:03:00,18-10.3100N,120-21.4100E,19,27.771,32.7886
8237,2012/1/24,21:04:00,18-10.5300N,120-21.4900E,18,27.778,32.7931
8238,2012/1/24,21:05:00,18-10.7200N,120-21.5600E,18,27.783,32.7993
8239,2012/1/24,21:06:00,18-10.9300N,120-21.6200E,18,27.788,32.8069
8240,2012/1/24,21:07:00,18-11.1300N,120-21.7000E,17,27.796,32.8148
8241,2012/1/24,21:08:00,18-11.3300N,120-21.7600E,16,27.808,32.8224
8242,2012/1/24,21:09:00,18-11.5400N,120-21.8300E,17,27.824,32.8311
8243,2012/1/24,21:10:00,18-11.7500N,120-21.8900E,15,27.837,32.8403
8244,2012/1/24,21:11:00,18-11.9600N,120-21.9500E,17,27.853,32.8497
8245,2012/1/24,21:12:00,18-12.1600N,120-22.0100E,15,27.868,32.8585
8246,2012/1/24,21:13:00,18-12.3700N,120-22.0800E,17,27.887,32.8698
8247,2012/1/24,21:14:00,18-12.5800N,120-22.1400E,16,27.9,32.8796
8248,2012/1/24,21:15:00,18-12.7800N,120-22.2100E,18,27.921,32.891
8249,2012/1/24,21:16:00,18-13.0200N,120-22.2900E,17,27.939,32.9054
8250,2012/1/24,21:17:00,18-13.2200N,120-22.3600E,17,27.961,32.9191
8251,2012/1/24,21:18:00,18-13.4200N,120-22.4300E,18,27.982,32.9318
8252,2012/1/24,21:19:00,18-13.6200N,120-22.5000E,16,27.987,32.9473
8253,2012/1/24,21:20:00,18-13.8300N,120-22.5600E,16,27.991,32.9572
8254,2012/1/24,21:21:00,18-14.0100N,120-22.6200E,14,27.99,32.9652
8255,2012/1/24,21:22:00,18-14.2100N,120-22.6800E,17,27.99,32.9677
8256,2012/1/24,21:23:00,18-14.4200N,120-22.7500E,16,27.99,32.9688
8257,2012/1/24,21:24:00,18-14.6200N,120-22.8100E,16,27.98,32.9701
8258,2012/1/24,21:25:00,18-14.8300N,120-22.8800E,17,27.984,32.97
8259,2012/1/24,21:26:00,18-15.0300N,120-22.9400E,15,27.979,32.9739
8260,2012/1/24,21:27:00,18-15.2400N,120-23.0000E,15,27.98,32.974
8261,2012/1/24,21:28:00,18-15.4400N,120-23.0600E,14,27.976,32.974
8262,2012/1/24,21:29:00,18-15.6500N,120-23.1200E,15,27.967,32.9722
8263,2012/1/24,21:30:00,18-15.8600N,120-23.1800E,15,27.961,32.9717
8264,2012/1/24,21:31:00,18-16.0600N,120-23.2300E,14,27.96,32.9694
8265,2012/1/24,21:32:00,18-16.2700N,120-23.2900E,15,27.954,32.9676
8266,2012/1/24,21:33:00,18-16.4800N,120-23.3400E,13,27.954,32.9659
8267,2012/1/24,21:34:00,18-16.6900N,120-23.4000E,13,27.948,32.9639
8268,2012/1/24,21:35:00,18-16.8900N,120-23.4500E,14,27.941,32.962
8269,2012/1/24,21:36:00,18-17.1000N,120-23.5100E,16,27.937,32.9604
8270,2012/1/24,21:37:00,18-17.3000N,120-23.5700E,15,27.932,32.9553
8271,2012/1/24,21:38:00,18-17.5100N,120-23.6200E,13,27.934,32.9527
8272,2012/1/24,21:39:00,18-17.7200N,120-23.6800E,14,27.926,32.9496
8273,2012/1/24,21:40:00,18-17.9500N,120-23.7400E,14,27.924,32.9494
8274,2012/1/24,21:41:00,18-18.1700N,120-23.8000E,14,27.924,32.9471
8275,2012/1/24,21:42:00,18-18.3800N,120-23.8600E,14,27.912,32.9447
8276,2012/1/24,21:43:00,18-18.5600N,120-23.9100E,14,27.907,32.9423
8277,2012/1/24,21:44:00,18-18.7700N,120-23.9600E,13,27.893,32.9368
8278,2012/1/24,21:45:00,18-18.9800N,120-24.0200E,15,27.882,32.9309
8279,2012/1/24,21:46:00,18-19.1900N,120-24.0800E,14,27.876,32.9254
8280,2012/1/24,21:47:00,18-19.4200N,120-24.1500E,16,27.871,32.9201
8281,2012/1/24,21:48:00,18-19.6100N,120-24.2000E,16,27.863,32.9165
8282,2012/1/24,21:49:00,18-19.8200N,120-24.2600E,14,27.853,32.9115
8283,2012/1/24,21:50:00,18-20.0400N,120-24.3200E,15,27.843,32.905
8284,2012/1/24,21:51:00,18-20.2500N,120-24.3800E,15,27.832,32.8984
8285,2012/1/24,21:52:00,18-20.4600N,120-24.4400E,15,27.823,32.8916
8286,2012/1/24,21:53:00,18-20.6700N,120-24.5000E,13,27.807,32.8853
8287,2012/1/24,21:54:00,18-20.8900N,120-24.5600E,15,27.801,32.8776
8288,2012/1/24,21:55:00,18-21.1000N,120-24.6200E,16,27.787,32.8678
8289,2012/1/24,21:56:00,18-21.3100N,120-24.6800E,14,27.77,32.8605
8290,2012/1/24,21:57:00,18-21.5300N,120-24.7400E,15,27.762,32.8513
8291,2012/1/24,21:58:00,18-21.7400N,120-24.8000E,13,27.744,32.8426
8292,2012/1/24,21:59:00,18-21.9500N,120-24.8600E,15,27.739,32.833
8293,2012/1/24,22:00:00,18-22.1600N,120-24.9200E,16,27.733,32.8251
8294,2012/1/24,22:01:00,18-22.3700N,120-24.9900E,16,27.729,32.8189
8295,2012/1/24,22:02:00,18-22.5800N,120-25.0500E,14,27.726,32.8144
8296,2012/1/24,22:03:00,18-22.7900N,120-25.1100E,15,27.724,32.8105
8297,2012/1/24,22:04:00,18-23.0000N,120-25.1700E,14,27.721,32.8065
8298,2012/1/24,22:05:00,18-23.2100N,120-25.2200E,15,27.717,32.8047
8299,2012/1/24,22:06:00,18-23.4200N,120-25.2900E,16,27.712,32.8031